Location: Chippewa Lake
(41.0698°N, 81.9010°W)
Time: 05:37:58
(UTC+00:00)

SL-8 Rocket - Pass Details

Date: 06 October 2021
Orbit: 958 x 990 km, 82.9° (Epoch: 17 October)

Event Time Altitude Azimuth Distance (km) Brightness Sun altitude
Rises 23:42:14 0° 175° (S) 3,678 7.0 -8.6°
Reaches altitude 10° 23:44:45 10° 171° (S) 2,737 6.3 -9.1°
Maximum altitude 23:50:56 62° 93° (E) 1,106 4.0 -10.3°
Drops below altitude 10° 23:57:10 10° 14° (NNE) 2,759 6.3 -11.5°
Sets 23:59:43 0° 11° (NNE) 3,711 7.0 -11.9°
